Weather History for Asyut, Egypt

Change the Weather History Date:

Friday, September 20, 2013

  Actual Average Record
Temperature  
Mean Temperature 86 °F -  
Max Temperature 97 °F 89 °F - ()
Min Temperature 74 °F 63 °F - ()
Cooling Degree Days 20    
Growing Degree Days 36 (Base 50)    
Moisture  
Dew Point 59 °F    
Average Humidity 39    
Maximum Humidity 61    
Minimum Humidity 21    
Precipitation  
Precipitation 0.00 in 0.00 in - ()
Sea Level Pressure  
Sea Level Pressure 29.92 in    
Wind  
Wind Speed 4 mph ()    
Max Wind Speed 10 mph    
Max Gust Speed -    
Visibility 6.0 miles    
Events      
T = Trace of Precipitation, MM = Missing Value Source: Averaged Metar Reports

Daily Weather History Graph

Daily Weather History Graph

Search for Another Location

Airport:

Trip Planner

Search our weather history database for the weather conditions in past years. The results will help you decide how hot, cold, wet, or windy it might be!

Date:

Astronomy

Sep. 20, 2013 Rise Set
Actual Time 5:43 AM EET 5:54 PM EET
Civil Twilight 5:20 AM EET 6:17 PM EET
Nautical Twilight 4:53 AM EET 6:45 PM EET
Astronomical Twilight 4:25 AM EET 7:12 PM EET
Moon 6:27 PM EET (9/20) 6:27 AM EET (9/20)
Length of Visible Light 12h 57m
Length of Day
12h 11m
Full, 99% of the Moon is Illuminated
Sep 20
Full
Sep 27
Last Quarter
Oct 5
New
Oct 12
First Quarter
Oct 19
Full

Hourly Weather History & Observations

Time (EET) Temp. Heat Index Dew Point Humidity Pressure Visibility Wind Dir Wind Speed Gust Speed Precip Events Conditions
12:00 AM 86.0 °F - 44.6 °F 23% 29.86 in - West 5.8 mph - N/A   Clear
1:00 AM 84.2 °F - 46.4 °F 27% 29.86 in - WNW 3.5 mph - N/A   Clear
2:00 AM 81 °F - 52 °F 26% 29.84 in 6 mi NW 3.5 mph - -  
2:00 AM 80.6 °F - 51.8 °F 37% 29.86 in - NW 2.3 mph - N/A   Clear
3:00 AM 78.8 °F - 51.8 °F 39% 29.86 in - NW 3.5 mph - N/A   Clear
4:00 AM 77.0 °F - 50.0 °F 39% 29.86 in - NNW 5.8 mph - N/A   Clear
5:00 AM 77.0 °F - 60.8 °F 57% 29.89 in - NW 1.2 mph - N/A   Clear
6:00 AM 75.2 °F - 60.8 °F 61% 29.89 in - NW 3.5 mph - N/A   Clear
7:00 AM 77.0 °F - 59.0 °F 54% 29.92 in - NNW 2.3 mph - N/A   Clear
8:00 AM 80 °F - 62 °F 45% 29.93 in 6 mi NNW 1.2 mph - -  
8:00 AM 78.8 °F - 62.6 °F 57% 29.95 in - NNW 1.2 mph - N/A   Clear
9:00 AM 78.8 °F - 62.6 °F 57% 29.98 in - NNW 1.2 mph - N/A   Clear
10:00 AM 86.0 °F 86.6 °F 62.6 °F 45% 29.98 in - North 6.9 mph - N/A   Clear
11:00 AM 91.4 °F 90.7 °F 59.0 °F 34% 29.98 in - NNW 8.1 mph - N/A   Clear
12:00 PM 93.2 °F 92.6 °F 59.0 °F 32% 29.95 in - NNW 9.2 mph - N/A   Clear
1:00 PM 95.0 °F 94.4 °F 59.0 °F 30% 29.95 in - NNW 5.8 mph - N/A   Clear
2:00 PM 97 °F - 61 °F 21% 29.88 in 6 mi West 9.2 mph - -  
2:00 PM 96.8 °F 97.1 °F 60.8 °F 30% 29.92 in - East 9.2 mph - N/A   Clear
3:00 PM 98.6 °F 99.4 °F 60.8 °F 29% 29.92 in - NW 8.1 mph - N/A   Clear
4:00 PM 98.6 °F 99.4 °F 60.8 °F 29% 29.92 in - NNW 8.1 mph - N/A   Clear
5:00 PM 95.0 °F 96.0 °F 62.6 °F 34% 29.92 in - NNW 9.2 mph - N/A   Clear
6:00 PM 91.4 °F 91.4 °F 60.8 °F 36% 29.92 in - NNW 10.4 mph - N/A   Clear
7:00 PM 87.8 °F 87.6 °F 60.8 °F 40% 29.95 in - NNW 4.6 mph - N/A   Clear
8:00 PM 89 °F - 63 °F 32% 29.92 in 6 mi NNW 6.9 mph - -  
8:00 PM 87.8 °F 88.5 °F 62.6 °F 43% 29.95 in - NNW 6.9 mph - N/A   Clear
9:00 PM 86.0 °F 86.6 °F 62.6 °F 45% 29.98 in - North 3.5 mph - N/A   Clear
10:00 PM 84.2 °F 85.0 °F 62.6 °F 48% 29.98 in - NNW 4.6 mph - N/A   Clear
11:00 PM 82.4 °F 83.4 °F 62.6 °F 51% 29.98 in - NNW 4.6 mph - N/A   Clear